Location: Baix
(44.7118°N, 4.7648°E)
Time: 19:09:52
(UTC+00:00)

Cosmos 1805 - Pass Details

Date: 07 August 2020
Orbit: 526 x 530 km, 82.5° (Epoch: 24 September)

Event Time Altitude Azimuth Distance (km) Brightness Sun altitude
Exits shadow 01:23:32 48° 69° (ENE) 695 4.0 -25.1°
Drops below altitude 10° 01:26:53 10° 19° (NNE) 1,778 7.0 -24.8°
Sets 01:29:04 0° 14° (NNE) 2,672 8.1 -24.7°
